Location: Newark
(49.2191°N, 12.6671°E)
Time: 21:59:06
(UTC+00:00)

Transit 4A - Pass Details

Date: 25 January 2020
Orbit: 872 x 973 km, 66.8° (Epoch: 20 February)

Event Time Altitude Azimuth Distance (km) Brightness Sun altitude
Rises 04:20:02 0° 163° (SSE) 3,546 11.2 -24.3°
Reaches altitude 10° 04:23:23 10° 145° (SE) 2,589 10.7 -23.7°
Maximum altitude 04:27:13 18° 105° (ESE) 2,069 10.6 -23.1°
Drops below altitude 10° 04:31:00 10° 65° (ENE) 2,561 11.0 -22.5°
Sets 04:34:16 0° 47° (NE) 3,492 11.5 -22.0°
